Location: Kapuskasing
(49.3803°N, 82.4001°W)
Time: 10:46:37
(UTC-04:00)

Envisat - Pass Details

Date: 15 March 2026
Orbit: 761 x 762 km, 98.4° (Epoch: 11 April)

Event Time Altitude Azimuth Distance (km) Brightness Sun altitude
Rises 03:43:48 0° 19° (NNE) 3,236 7.1 -35.7°
Reaches altitude 10° 03:46:13 10° 26° (NNE) 2,305 6.2 -35.4°
Enters shadow 03:49:19 32° 51° (NE) 1,284 4.5 -35.1°
